Year,Month,Day,Hour,Minute,Value (Times are PST for temperature in C)
2011,09,16,00,00,10.20
2011,09,16,00,01,10.20
2011,09,16,00,02,10.20
2011,09,16,00,03,10.10
2011,09,16,00,04,10.10
2011,09,16,00,05,10.10
2011,09,16,00,06,10.10
2011,09,16,00,07,10.00
2011,09,16,00,08,10.00
2011,09,16,00,09,9.90
2011,09,16,00,10,9.90
2011,09,16,00,11,9.90
2011,09,16,00,12,9.90
2011,09,16,00,13,9.90
2011,09,16,00,14,9.90
2011,09,16,00,15,9.90
2011,09,16,00,16,9.80
2011,09,16,00,17,9.80
2011,09,16,00,18,9.80
2011,09,16,00,19,9.80
2011,09,16,00,20,9.70
2011,09,16,00,21,9.70
2011,09,16,00,22,9.70
2011,09,16,00,23,9.70
2011,09,16,00,24,9.70
2011,09,16,00,25,9.60
2011,09,16,00,26,9.60
2011,09,16,00,27,9.60
2011,09,16,00,28,9.60
2011,09,16,00,29,9.60
2011,09,16,00,30,9.60
2011,09,16,00,31,9.50
2011,09,16,00,32,9.50
2011,09,16,00,33,9.40
2011,09,16,00,34,9.40
2011,09,16,00,35,9.40
2011,09,16,00,36,9.40
2011,09,16,00,37,9.40
2011,09,16,00,38,9.40
2011,09,16,00,39,9.40
2011,09,16,00,40,9.40
2011,09,16,00,41,9.30
2011,09,16,00,42,9.30
2011,09,16,00,43,9.30
2011,09,16,00,44,9.30
2011,09,16,00,45,9.30
2011,09,16,00,46,9.30
2011,09,16,00,47,9.40
2011,09,16,00,48,9.40
2011,09,16,00,49,9.40
2011,09,16,00,50,9.40
2011,09,16,00,51,9.40
2011,09,16,00,52,9.40
2011,09,16,00,53,9.40
2011,09,16,00,54,9.40
2011,09,16,00,55,9.40
2011,09,16,00,56,9.40
2011,09,16,00,57,9.40
2011,09,16,00,58,9.40
2011,09,16,00,59,9.40
2011,09,16,01,00,9.40
2011,09,16,01,01,9.40
2011,09,16,01,02,9.40
2011,09,16,01,03,9.40
2011,09,16,01,04,9.40
2011,09,16,01,05,9.50
2011,09,16,01,06,9.50
2011,09,16,01,07,9.50
2011,09,16,01,08,9.50
2011,09,16,01,09,9.50
2011,09,16,01,10,9.50
2011,09,16,01,11,9.50
2011,09,16,01,12,9.60
2011,09,16,01,13,9.60
2011,09,16,01,14,9.60
2011,09,16,01,15,9.60
2011,09,16,01,16,9.60
2011,09,16,01,17,9.60
2011,09,16,01,18,9.60
2011,09,16,01,19,9.60
2011,09,16,01,20,9.60
2011,09,16,01,21,9.60
2011,09,16,01,22,9.60
2011,09,16,01,23,9.60
2011,09,16,01,24,9.60
2011,09,16,01,25,9.60
2011,09,16,01,26,9.60
2011,09,16,01,27,9.50
2011,09,16,01,28,9.40
2011,09,16,01,29,9.40
2011,09,16,01,30,9.40
2011,09,16,01,31,9.30
2011,09,16,01,32,9.30
2011,09,16,01,33,9.30
2011,09,16,01,34,9.20
2011,09,16,01,35,9.20
2011,09,16,01,36,9.20
2011,09,16,01,37,9.20
2011,09,16,01,38,9.20
2011,09,16,01,39,9.20
2011,09,16,01,40,9.20
2011,09,16,01,41,9.20
2011,09,16,01,42,9.20
2011,09,16,01,43,9.20
2011,09,16,01,44,9.20
2011,09,16,01,45,9.20
2011,09,16,01,46,9.20
2011,09,16,01,47,9.20
2011,09,16,01,48,9.20
2011,09,16,01,49,9.20
2011,09,16,01,50,9.20
2011,09,16,01,51,9.20
2011,09,16,01,52,9.10
2011,09,16,01,53,9.10
2011,09,16,01,54,9.10
2011,09,16,01,55,9.10
2011,09,16,01,56,9.00
2011,09,16,01,57,9.00
2011,09,16,01,58,9.00
2011,09,16,01,59,9.00
2011,09,16,02,00,9.10
2011,09,16,02,01,9.10
2011,09,16,02,02,9.10
2011,09,16,02,03,9.10
2011,09,16,02,04,9.10
2011,09,16,02,05,9.10
2011,09,16,02,06,9.10
2011,09,16,02,07,9.10
2011,09,16,02,08,9.10
2011,09,16,02,09,9.10
2011,09,16,02,10,9.10
2011,09,16,02,11,9.10
2011,09,16,02,12,9.10
2011,09,16,02,13,9.10
2011,09,16,02,14,9.10
2011,09,16,02,15,9.10
2011,09,16,02,16,9.10
2011,09,16,02,17,9.10
2011,09,16,02,18,9.10
2011,09,16,02,19,9.10
2011,09,16,02,20,9.10
2011,09,16,02,21,9.10
2011,09,16,02,22,9.10
2011,09,16,02,23,9.10
2011,09,16,02,24,9.00
2011,09,16,02,25,9.00
2011,09,16,02,26,9.00
2011,09,16,02,27,9.00
2011,09,16,02,28,9.00
2011,09,16,02,29,9.00
2011,09,16,02,30,8.90
2011,09,16,02,31,8.90
2011,09,16,02,32,8.90
2011,09,16,02,33,8.90
2011,09,16,02,34,8.90
2011,09,16,02,35,9.00
2011,09,16,02,36,9.00
2011,09,16,02,37,9.00
2011,09,16,02,38,9.00
2011,09,16,02,39,9.00
2011,09,16,02,40,9.00
2011,09,16,02,41,9.10
2011,09,16,02,42,9.10
2011,09,16,02,43,9.10
2011,09,16,02,44,9.10
2011,09,16,02,45,9.10
2011,09,16,02,46,9.20
2011,09,16,02,47,9.20
2011,09,16,02,48,9.20
2011,09,16,02,49,9.20
2011,09,16,02,50,9.20
2011,09,16,02,51,9.20
2011,09,16,02,52,9.20
2011,09,16,02,53,9.20
2011,09,16,02,54,9.20
2011,09,16,02,55,9.30
2011,09,16,02,56,9.30
2011,09,16,02,57,9.30
2011,09,16,02,58,9.30
2011,09,16,02,59,9.30
2011,09,16,03,00,9.30
2011,09,16,03,01,9.40
2011,09,16,03,02,9.40
2011,09,16,03,06,9.30
2011,09,16,03,07,9.30
2011,09,16,03,08,9.30
2011,09,16,03,09,9.30
2011,09,16,03,10,9.30
2011,09,16,03,11,9.20
2011,09,16,03,12,9.20
2011,09,16,03,13,9.20
2011,09,16,03,14,9.20
2011,09,16,03,15,9.20
2011,09,16,03,16,9.10
2011,09,16,03,17,9.10
2011,09,16,03,18,9.10
2011,09,16,03,19,9.10
2011,09,16,03,20,9.10
2011,09,16,03,21,9.10
2011,09,16,03,22,9.00
2011,09,16,03,23,9.00
2011,09,16,03,24,9.00
2011,09,16,03,25,9.00
2011,09,16,03,26,9.00
2011,09,16,03,27,9.00
2011,09,16,03,28,9.00
2011,09,16,03,29,9.00
2011,09,16,03,30,9.00
2011,09,16,03,31,9.00
2011,09,16,03,32,8.90
2011,09,16,03,33,8.90
2011,09,16,03,34,8.90
2011,09,16,03,35,8.90
2011,09,16,03,36,8.90
2011,09,16,03,37,8.90
2011,09,16,03,38,8.90
2011,09,16,03,39,8.90
2011,09,16,03,40,8.80
2011,09,16,03,41,8.80
2011,09,16,03,42,8.80
2011,09,16,03,43,8.70
2011,09,16,03,44,8.70
2011,09,16,03,45,8.70
2011,09,16,03,46,8.70
2011,09,16,03,47,8.70
2011,09,16,03,48,8.70
2011,09,16,03,49,8.70
2011,09,16,03,50,8.70
2011,09,16,03,51,8.70
2011,09,16,03,52,8.70
2011,09,16,03,53,8.60
2011,09,16,03,54,8.60
2011,09,16,03,55,8.60
2011,09,16,03,56,8.60
2011,09,16,03,57,8.60
2011,09,16,03,58,8.50
2011,09,16,03,59,8.50
2011,09,16,04,00,8.50
2011,09,16,04,01,8.50
2011,09,16,04,02,8.50
2011,09,16,04,03,8.50
2011,09,16,04,04,8.50
2011,09,16,04,05,8.50
2011,09,16,04,06,8.40
2011,09,16,04,07,8.40
2011,09,16,04,08,8.40
2011,09,16,04,09,8.30
2011,09,16,04,10,8.30
2011,09,16,04,11,8.30
2011,09,16,04,12,8.30
2011,09,16,04,13,8.30
2011,09,16,04,14,8.30
2011,09,16,04,15,8.30
2011,09,16,04,16,8.30
2011,09,16,04,17,8.30
2011,09,16,04,18,8.30
2011,09,16,04,19,8.30
2011,09,16,04,20,8.20
2011,09,16,04,21,8.20
2011,09,16,04,22,8.20
2011,09,16,04,23,8.20
2011,09,16,04,24,8.10
2011,09,16,04,25,8.10
2011,09,16,04,26,8.10
2011,09,16,04,27,8.10
2011,09,16,04,28,8.10
2011,09,16,04,29,8.10
2011,09,16,04,30,8.10
2011,09,16,04,31,8.10
2011,09,16,04,32,8.10
2011,09,16,04,33,8.10
2011,09,16,04,34,8.10
2011,09,16,04,35,8.10
2011,09,16,04,36,8.10
2011,09,16,04,37,8.10
2011,09,16,04,38,8.00
2011,09,16,04,39,8.00
2011,09,16,04,40,8.10
2011,09,16,04,41,8.10
2011,09,16,04,42,8.10
2011,09,16,04,43,8.10
2011,09,16,04,44,8.10
2011,09,16,04,45,8.10
2011,09,16,04,46,8.10
2011,09,16,04,47,8.10
2011,09,16,04,48,8.10
2011,09,16,04,49,8.00
2011,09,16,04,50,8.00
2011,09,16,04,51,8.00
2011,09,16,04,52,7.90
2011,09,16,04,53,7.90
2011,09,16,04,54,7.90
2011,09,16,04,55,7.90
2011,09,16,04,56,7.90
2011,09,16,04,57,7.90
2011,09,16,04,58,7.90
2011,09,16,04,59,7.90
2011,09,16,05,00,7.90
2011,09,16,05,01,7.90
2011,09,16,05,02,7.90
2011,09,16,05,03,7.90
2011,09,16,05,04,7.90
2011,09,16,05,05,8.00
2011,09,16,05,06,8.00
2011,09,16,05,07,8.00
2011,09,16,05,08,8.00
2011,09,16,05,09,8.10
2011,09,16,05,10,8.10
2011,09,16,05,11,8.10
2011,09,16,05,12,8.10
2011,09,16,05,13,8.10
2011,09,16,05,14,8.20
2011,09,16,05,15,8.20
2011,09,16,05,16,8.20
2011,09,16,05,17,8.20
2011,09,16,05,18,8.20
2011,09,16,05,19,8.20
2011,09,16,05,20,8.20
2011,09,16,05,21,8.20
2011,09,16,05,22,8.20
2011,09,16,05,23,8.20
2011,09,16,05,24,8.20
2011,09,16,05,25,8.30
2011,09,16,05,26,8.30
2011,09,16,05,27,8.30
2011,09,16,05,28,8.30
2011,09,16,05,29,8.30
2011,09,16,05,30,8.30
2011,09,16,05,31,8.30
2011,09,16,05,32,8.30
2011,09,16,05,33,8.30
2011,09,16,05,34,8.30
2011,09,16,05,35,8.30
2011,09,16,05,36,8.30
2011,09,16,05,37,8.30
2011,09,16,05,38,8.40
2011,09,16,05,39,8.40
2011,09,16,05,40,8.40
2011,09,16,05,41,8.40
2011,09,16,05,42,8.40
2011,09,16,05,43,8.40
2011,09,16,05,44,8.50
2011,09,16,05,45,8.40
2011,09,16,05,46,8.50
2011,09,16,05,47,8.50
2011,09,16,05,48,8.50
2011,09,16,05,49,8.50
2011,09,16,05,50,8.50
2011,09,16,05,51,8.50
2011,09,16,05,52,8.50
2011,09,16,05,53,8.50
2011,09,16,05,54,8.50
2011,09,16,05,55,8.50
2011,09,16,05,56,8.50
2011,09,16,05,57,8.50
2011,09,16,05,58,8.50
2011,09,16,05,59,8.50
2011,09,16,06,00,8.50
2011,09,16,06,01,8.50
2011,09,16,06,02,8.50
2011,09,16,06,03,8.50
2011,09,16,06,04,8.50
2011,09,16,06,05,8.50
2011,09,16,06,06,8.50
2011,09,16,06,07,8.40
2011,09,16,06,08,8.40
2011,09,16,06,09,8.50
2011,09,16,06,10,8.50
2011,09,16,06,11,8.50
2011,09,16,06,12,8.50
2011,09,16,06,13,8.50
2011,09,16,06,14,8.50
2011,09,16,06,15,8.50
2011,09,16,06,16,8.50
2011,09,16,06,17,8.50
2011,09,16,06,18,8.50
2011,09,16,06,19,8.50
2011,09,16,06,20,8.50
2011,09,16,06,21,8.50
2011,09,16,06,22,8.50
2011,09,16,06,23,8.50
2011,09,16,06,24,8.50
2011,09,16,06,25,8.50
2011,09,16,06,26,8.60
2011,09,16,06,27,8.60
2011,09,16,06,28,8.60
2011,09,16,06,29,8.60
2011,09,16,06,30,8.60
2011,09,16,06,31,8.60
2011,09,16,06,32,8.60
2011,09,16,06,33,8.60
2011,09,16,06,34,8.60
2011,09,16,06,35,8.60
2011,09,16,06,36,8.60
2011,09,16,06,37,8.60
2011,09,16,06,38,8.70
2011,09,16,06,39,8.70
2011,09,16,06,40,8.70
2011,09,16,06,41,8.70
2011,09,16,06,42,8.70
2011,09,16,06,43,8.70
2011,09,16,06,44,8.70
2011,09,16,06,45,8.70
2011,09,16,06,46,8.70
2011,09,16,06,47,8.70
2011,09,16,06,48,8.70
2011,09,16,06,49,8.70
2011,09,16,06,50,8.70
2011,09,16,06,51,8.70
2011,09,16,06,52,8.70
2011,09,16,06,53,8.80
2011,09,16,06,54,8.80
2011,09,16,06,55,8.80
2011,09,16,06,56,8.80
2011,09,16,06,57,8.80
2011,09,16,06,58,8.80
2011,09,16,06,59,8.80
2011,09,16,07,00,8.80
2011,09,16,07,01,8.80
2011,09,16,07,02,8.80
2011,09,16,07,03,8.80
2011,09,16,07,04,8.80
2011,09,16,07,05,8.80
2011,09,16,07,06,8.80
2011,09,16,07,07,8.90
2011,09,16,07,08,8.90
2011,09,16,07,09,8.90
2011,09,16,07,10,8.90
2011,09,16,07,11,8.90
2011,09,16,07,12,8.90
2011,09,16,07,13,8.90
2011,09,16,07,14,9.00
2011,09,16,07,15,9.00
2011,09,16,07,16,9.10
2011,09,16,07,17,9.10
2011,09,16,07,18,9.10
2011,09,16,07,19,9.10
2011,09,16,07,20,9.10
2011,09,16,07,21,9.10
2011,09,16,07,22,9.20
2011,09,16,07,23,9.20
2011,09,16,07,24,9.20
2011,09,16,07,25,9.20
2011,09,16,07,26,9.20
2011,09,16,07,27,9.30
2011,09,16,07,28,9.30
2011,09,16,07,29,9.30
2011,09,16,07,30,9.30
2011,09,16,07,31,9.30
2011,09,16,07,32,9.40
2011,09,16,07,33,9.40
2011,09,16,07,34,9.40
2011,09,16,07,35,9.40
2011,09,16,07,36,9.40
2011,09,16,07,37,9.40
2011,09,16,07,38,9.40
2011,09,16,07,39,9.40
2011,09,16,07,40,9.40
2011,09,16,07,41,9.40
2011,09,16,07,42,9.40
2011,09,16,07,43,9.40
2011,09,16,07,44,9.40
2011,09,16,07,45,9.40
2011,09,16,07,46,9.50
2011,09,16,07,47,9.50
2011,09,16,07,48,9.60
2011,09,16,07,49,9.60
2011,09,16,07,50,9.60
2011,09,16,07,51,9.60
2011,09,16,07,52,9.60
2011,09,16,07,53,9.60
2011,09,16,07,54,9.60
2011,09,16,07,55,9.60
2011,09,16,07,56,9.70
2011,09,16,07,57,9.70
2011,09,16,07,58,9.70
2011,09,16,07,59,9.70
2011,09,16,08,00,9.80
2011,09,16,08,01,9.80
2011,09,16,08,02,9.80
2011,09,16,08,03,9.90
2011,09,16,08,04,9.90
2011,09,16,08,05,9.90
2011,09,16,08,06,9.90
2011,09,16,08,07,10.00
2011,09,16,08,08,10.00
2011,09,16,08,09,10.00
2011,09,16,08,10,10.00
2011,09,16,08,11,10.00
2011,09,16,08,12,10.10
2011,09,16,08,13,10.10
2011,09,16,08,14,10.10
2011,09,16,08,15,10.10
2011,09,16,08,16,10.20
2011,09,16,08,17,10.20
2011,09,16,08,18,10.20
2011,09,16,08,19,10.20
2011,09,16,08,20,10.30
2011,09,16,08,21,10.30
2011,09,16,08,22,10.30
2011,09,16,08,23,10.40
2011,09,16,08,24,10.40
2011,09,16,08,25,10.40
2011,09,16,08,26,10.40
2011,09,16,08,27,10.50
2011,09,16,08,28,10.50
2011,09,16,08,29,10.60
2011,09,16,08,30,10.60
2011,09,16,08,31,10.70
2011,09,16,08,32,10.80
2011,09,16,08,33,10.80
2011,09,16,08,34,10.90
2011,09,16,08,35,10.90
2011,09,16,08,36,11.00
2011,09,16,08,37,11.00
2011,09,16,08,38,11.10
2011,09,16,08,39,11.20
2011,09,16,08,40,11.20
2011,09,16,08,41,11.30
2011,09,16,08,42,11.30
2011,09,16,08,43,11.40
2011,09,16,08,44,11.40
2011,09,16,08,45,11.50
2011,09,16,08,46,11.60
2011,09,16,08,47,11.70
2011,09,16,08,48,11.70
2011,09,16,08,49,11.80
2011,09,16,08,50,11.90
2011,09,16,08,51,11.90
2011,09,16,08,52,12.00
2011,09,16,08,53,12.00
2011,09,16,08,54,12.10
2011,09,16,08,55,12.20
2011,09,16,08,56,12.20
2011,09,16,08,57,12.30
2011,09,16,08,58,12.30
2011,09,16,08,59,12.40
2011,09,16,09,00,12.40
2011,09,16,09,01,12.50
2011,09,16,09,02,12.50
2011,09,16,09,03,12.60
2011,09,16,09,04,12.60
2011,09,16,09,05,12.70
2011,09,16,09,06,12.70
2011,09,16,09,07,12.70
2011,09,16,09,08,12.70
2011,09,16,09,09,12.80
2011,09,16,09,10,12.80
2011,09,16,09,11,12.80
2011,09,16,09,12,12.90
2011,09,16,09,13,12.90
2011,09,16,09,14,13.00
2011,09,16,09,15,13.00
2011,09,16,09,16,13.00
2011,09,16,09,17,13.10
2011,09,16,09,18,13.10
2011,09,16,09,19,13.10
2011,09,16,09,20,13.20
2011,09,16,09,21,13.20
2011,09,16,09,22,13.20
2011,09,16,09,23,13.30
2011,09,16,09,24,13.30
2011,09,16,09,25,13.40
2011,09,16,09,26,13.40
2011,09,16,09,27,13.50
2011,09,16,09,28,13.60
2011,09,16,09,29,13.70
2011,09,16,09,30,13.80
2011,09,16,09,31,13.80
2011,09,16,09,32,13.80
2011,09,16,09,33,13.80
2011,09,16,09,34,13.80
2011,09,16,09,35,13.80
2011,09,16,09,36,13.80
2011,09,16,09,37,13.80
2011,09,16,09,38,13.90
2011,09,16,09,39,13.90
2011,09,16,09,40,13.90
2011,09,16,09,41,13.90
2011,09,16,09,42,13.90
2011,09,16,09,43,13.90
2011,09,16,09,44,13.90
2011,09,16,09,45,13.90
2011,09,16,09,46,13.80
2011,09,16,09,47,13.80
2011,09,16,09,48,13.80
2011,09,16,09,49,13.80
2011,09,16,09,50,13.80
2011,09,16,09,51,13.80
2011,09,16,09,52,13.70
2011,09,16,09,53,13.70
2011,09,16,09,54,13.70
2011,09,16,09,55,13.70
2011,09,16,09,56,13.70
2011,09,16,09,57,13.70
2011,09,16,09,58,13.80
2011,09,16,09,59,13.80
2011,09,16,10,00,13.90
2011,09,16,10,01,13.90
2011,09,16,10,02,13.90
2011,09,16,10,03,14.00
2011,09,16,10,04,14.00
2011,09,16,10,05,14.10
2011,09,16,10,06,14.20
2011,09,16,10,07,14.30
2011,09,16,10,08,14.40
2011,09,16,10,09,14.40
2011,09,16,10,10,14.40
2011,09,16,10,11,14.50
2011,09,16,10,12,14.50
2011,09,16,10,13,14.50
2011,09,16,10,14,14.50
2011,09,16,10,15,14.50
2011,09,16,10,16,14.50
2011,09,16,10,17,14.50
2011,09,16,10,18,14.60
2011,09,16,10,19,14.60
2011,09,16,10,20,14.70
2011,09,16,10,21,14.70
2011,09,16,10,22,14.80
2011,09,16,10,23,14.80
2011,09,16,10,24,14.90
2011,09,16,10,25,14.80
2011,09,16,10,26,14.80
2011,09,16,10,27,14.80
2011,09,16,10,28,14.80
2011,09,16,10,29,14.80
2011,09,16,10,30,14.80
2011,09,16,10,31,14.80
2011,09,16,10,32,14.80
2011,09,16,10,33,14.80
2011,09,16,10,34,14.80
2011,09,16,10,35,14.80
2011,09,16,10,36,14.80
2011,09,16,10,37,14.80
2011,09,16,10,38,14.80
2011,09,16,10,39,14.80
2011,09,16,10,40,14.80
2011,09,16,10,41,14.80
2011,09,16,10,42,14.80
2011,09,16,10,43,14.70
2011,09,16,10,44,14.60
2011,09,16,10,45,14.60
2011,09,16,10,46,14.70
2011,09,16,10,47,14.70
2011,09,16,10,48,14.70
2011,09,16,10,49,14.70
2011,09,16,10,50,14.70
2011,09,16,10,51,14.80
2011,09,16,10,52,14.80
2011,09,16,10,53,14.80
2011,09,16,10,54,14.80
2011,09,16,10,55,14.70
2011,09,16,10,56,14.70
2011,09,16,10,57,14.70
2011,09,16,10,58,14.60
2011,09,16,10,59,14.60
2011,09,16,11,00,14.60
2011,09,16,11,01,14.60
2011,09,16,11,02,14.70
2011,09,16,11,03,14.80
2011,09,16,11,04,14.90
2011,09,16,11,05,15.00
2011,09,16,11,06,15.00
2011,09,16,11,07,15.00
2011,09,16,11,08,15.00
2011,09,16,11,09,15.20
2011,09,16,11,10,15.30
2011,09,16,11,11,15.40
2011,09,16,11,12,15.50
2011,09,16,11,13,15.50
2011,09,16,11,14,15.60
2011,09,16,11,15,15.60
2011,09,16,11,16,15.60
2011,09,16,11,17,15.60
2011,09,16,11,18,15.70
2011,09,16,11,19,15.70
2011,09,16,11,20,15.70
2011,09,16,11,21,15.70
2011,09,16,11,22,15.60
2011,09,16,11,23,15.60
2011,09,16,11,24,15.50
2011,09,16,11,25,15.40
2011,09,16,11,26,15.40
2011,09,16,11,27,15.30
2011,09,16,11,28,15.30
2011,09,16,11,29,15.20
2011,09,16,11,30,15.20
2011,09,16,11,31,15.20
2011,09,16,11,32,15.20
2011,09,16,11,33,15.20
2011,09,16,11,34,15.30
2011,09,16,11,35,15.30
2011,09,16,11,36,15.30
2011,09,16,11,37,15.40
2011,09,16,11,38,15.40
2011,09,16,11,39,15.40
2011,09,16,11,40,15.50
2011,09,16,11,41,15.60
2011,09,16,11,42,15.60
2011,09,16,11,43,15.70
2011,09,16,11,44,15.80
2011,09,16,11,45,15.80
2011,09,16,11,46,15.80
2011,09,16,11,47,15.80
2011,09,16,11,48,15.80
2011,09,16,11,49,15.80
2011,09,16,11,50,15.70
2011,09,16,11,51,15.70
2011,09,16,11,52,15.60
2011,09,16,11,53,15.70
2011,09,16,11,54,15.70
2011,09,16,11,55,15.70
2011,09,16,11,56,15.70
2011,09,16,11,57,15.70
2011,09,16,11,58,15.80
2011,09,16,11,59,15.80
2011,09,16,12,00,15.70
2011,09,16,12,01,15.70
2011,09,16,12,02,15.60
2011,09,16,12,03,15.60
2011,09,16,12,04,15.60
2011,09,16,12,05,15.60
2011,09,16,12,06,15.50
2011,09,16,12,07,15.50
2011,09,16,12,08,15.50
2011,09,16,12,09,15.50
2011,09,16,12,10,15.50
2011,09,16,12,11,15.50
2011,09,16,12,12,15.50
2011,09,16,12,13,15.60
2011,09,16,12,14,15.60
2011,09,16,12,15,15.60
2011,09,16,12,16,15.70
2011,09,16,12,17,15.70
2011,09,16,12,18,15.70
2011,09,16,12,19,15.70
2011,09,16,12,20,15.80
2011,09,16,12,21,15.80
2011,09,16,12,22,15.90
2011,09,16,12,23,15.90
2011,09,16,12,24,15.80
2011,09,16,12,25,15.80
2011,09,16,12,26,15.70
2011,09,16,12,27,15.70
2011,09,16,12,28,15.70
2011,09,16,12,29,15.60
2011,09,16,12,30,15.60
2011,09,16,12,31,15.60
2011,09,16,12,32,15.60
2011,09,16,12,33,15.60
2011,09,16,12,34,15.70
2011,09,16,12,35,15.70
2011,09,16,12,36,15.80
2011,09,16,12,37,15.80
2011,09,16,12,38,15.90
2011,09,16,12,39,16.00
2011,09,16,12,40,16.00
2011,09,16,12,41,16.10
2011,09,16,12,42,16.10
2011,09,16,12,43,16.10
2011,09,16,12,44,16.20
2011,09,16,12,45,16.20
2011,09,16,12,46,16.20
2011,09,16,12,47,16.20
2011,09,16,12,48,16.10
2011,09,16,12,49,16.10
2011,09,16,12,50,16.00
2011,09,16,12,51,16.00
2011,09,16,12,52,15.90
2011,09,16,12,53,15.90
2011,09,16,12,54,15.80
2011,09,16,12,55,15.80
2011,09,16,12,56,15.70
2011,09,16,12,57,15.70
2011,09,16,12,58,15.70
2011,09,16,12,59,15.70
2011,09,16,13,00,15.70
2011,09,16,13,01,15.70
2011,09,16,13,02,15.70
2011,09,16,13,03,15.70
2011,09,16,13,04,15.60
2011,09,16,13,05,15.60
2011,09,16,13,06,15.60
2011,09,16,13,07,15.60
2011,09,16,13,08,15.60
2011,09,16,13,09,15.50
2011,09,16,13,10,15.50
2011,09,16,13,11,15.50
2011,09,16,13,12,15.60
2011,09,16,13,13,15.60
2011,09,16,13,14,15.60
2011,09,16,13,15,15.60
2011,09,16,13,16,15.60
2011,09,16,13,17,15.50
2011,09,16,13,18,15.50
2011,09,16,13,19,15.40
2011,09,16,13,20,15.40
2011,09,16,13,21,15.40
2011,09,16,13,22,15.40
2011,09,16,13,23,15.50
2011,09,16,13,24,15.50
2011,09,16,13,25,15.60
2011,09,16,13,26,15.70
2011,09,16,13,27,15.80
2011,09,16,13,28,15.80
2011,09,16,13,29,15.80
2011,09,16,13,30,15.80
2011,09,16,13,31,15.80
2011,09,16,13,32,15.80
2011,09,16,13,33,15.80
2011,09,16,13,34,15.80
2011,09,16,13,35,15.80
2011,09,16,13,36,15.80
2011,09,16,13,37,15.80
2011,09,16,13,38,15.80
2011,09,16,13,39,15.80
2011,09,16,13,40,15.70
2011,09,16,13,41,15.70
2011,09,16,13,42,15.70
2011,09,16,13,43,15.70
2011,09,16,13,44,15.60
2011,09,16,13,45,15.60
2011,09,16,13,46,15.60
2011,09,16,13,47,15.50
2011,09,16,13,48,15.50
2011,09,16,13,49,15.50
2011,09,16,13,50,15.50
2011,09,16,13,51,15.50
2011,09,16,13,52,15.50
2011,09,16,13,53,15.50
2011,09,16,13,54,15.50
2011,09,16,13,55,15.50
2011,09,16,13,56,15.40
2011,09,16,13,57,15.40
2011,09,16,13,58,15.50
2011,09,16,13,59,15.60
2011,09,16,14,00,15.60
2011,09,16,14,01,15.70
2011,09,16,14,02,15.70
2011,09,16,14,03,15.70
2011,09,16,14,04,15.70
2011,09,16,14,05,15.70
2011,09,16,14,06,15.70
2011,09,16,14,07,15.70
2011,09,16,14,08,15.80
2011,09,16,14,09,15.80
2011,09,16,14,10,15.80
2011,09,16,14,11,15.90
2011,09,16,14,12,16.00
2011,09,16,14,13,16.00
2011,09,16,14,14,16.00
2011,09,16,14,15,16.00
2011,09,16,14,16,15.90
2011,09,16,14,17,15.90
2011,09,16,14,18,15.90
2011,09,16,14,19,15.80
2011,09,16,14,20,15.80
2011,09,16,14,21,15.80
2011,09,16,14,22,15.70
2011,09,16,14,23,15.60
2011,09,16,14,24,15.50
2011,09,16,14,25,15.40
2011,09,16,14,26,15.40
2011,09,16,14,27,15.40
2011,09,16,14,28,15.40
2011,09,16,14,29,15.40
2011,09,16,14,30,15.40
2011,09,16,14,31,15.40
2011,09,16,14,32,15.40
2011,09,16,14,33,15.30
2011,09,16,14,34,15.30
2011,09,16,14,35,15.20
2011,09,16,14,36,15.20
2011,09,16,14,37,15.20
2011,09,16,14,38,15.20
2011,09,16,14,39,15.20
2011,09,16,14,40,15.20
2011,09,16,14,41,15.20
2011,09,16,14,42,15.20
2011,09,16,14,43,15.20
2011,09,16,14,44,15.20
2011,09,16,14,45,15.20
2011,09,16,14,46,15.20
2011,09,16,14,47,15.20
2011,09,16,14,48,15.20
2011,09,16,14,49,15.30
2011,09,16,14,50,15.30
2011,09,16,14,51,15.30
2011,09,16,14,52,15.30
2011,09,16,14,53,15.30
2011,09,16,14,54,15.30
2011,09,16,14,55,15.30
2011,09,16,14,56,15.30
2011,09,16,14,57,15.30
2011,09,16,14,58,15.30
2011,09,16,14,59,15.40
2011,09,16,15,00,15.40
2011,09,16,15,01,15.40
2011,09,16,15,02,15.40
2011,09,16,15,03,15.40
2011,09,16,15,04,15.50
2011,09,16,15,05,15.50
2011,09,16,15,06,15.60
2011,09,16,15,07,15.60
2011,09,16,15,08,15.60
2011,09,16,15,09,15.60
2011,09,16,15,10,15.60
2011,09,16,15,11,15.50
2011,09,16,15,12,15.50
2011,09,16,15,13,15.40
2011,09,16,15,14,15.40
2011,09,16,15,15,15.40
2011,09,16,15,16,15.40
2011,09,16,15,17,15.30
2011,09,16,15,18,15.30
2011,09,16,15,19,15.30
2011,09,16,15,20,15.20
2011,09,16,15,21,15.20
2011,09,16,15,22,15.20
2011,09,16,15,23,15.20
2011,09,16,15,24,15.10
2011,09,16,15,25,15.20
2011,09,16,15,26,15.20
2011,09,16,15,27,15.10
2011,09,16,15,28,15.10
2011,09,16,15,29,15.00
2011,09,16,15,30,15.00
2011,09,16,15,31,15.00
2011,09,16,15,32,15.00
2011,09,16,15,33,15.00
2011,09,16,15,34,15.00
2011,09,16,15,35,15.00
2011,09,16,15,36,15.00
2011,09,16,15,37,15.00
2011,09,16,15,38,15.00
2011,09,16,15,39,15.00
2011,09,16,15,40,15.00
2011,09,16,15,41,15.00
2011,09,16,15,42,15.00
2011,09,16,15,43,15.00
2011,09,16,15,44,15.00
2011,09,16,15,45,15.00
2011,09,16,15,46,15.00
2011,09,16,15,47,15.00
2011,09,16,15,48,14.90
2011,09,16,15,49,14.80
2011,09,16,15,50,14.80
2011,09,16,15,51,14.80
2011,09,16,15,52,14.80
2011,09,16,15,53,14.70
2011,09,16,15,54,14.70
2011,09,16,15,55,14.60
2011,09,16,15,56,14.50
2011,09,16,15,57,14.50
2011,09,16,15,58,14.40
2011,09,16,15,59,14.40
2011,09,16,16,00,14.30
2011,09,16,16,01,14.30
2011,09,16,16,02,14.30
2011,09,16,16,03,14.30
2011,09,16,16,04,14.20
2011,09,16,16,05,14.20
2011,09,16,16,06,14.20
2011,09,16,16,07,14.20
2011,09,16,16,08,14.20
2011,09,16,16,09,14.20
2011,09,16,16,10,14.20
2011,09,16,16,11,14.20
2011,09,16,16,12,14.30
2011,09,16,16,13,14.30
2011,09,16,16,14,14.20
2011,09,16,16,15,14.20
2011,09,16,16,16,14.30
2011,09,16,16,17,14.30
2011,09,16,16,18,14.30
2011,09,16,16,19,14.30
2011,09,16,16,20,14.20
2011,09,16,16,21,14.20
2011,09,16,16,22,14.20
2011,09,16,16,23,14.20
2011,09,16,16,24,14.20
2011,09,16,16,25,14.20
2011,09,16,16,26,14.20
2011,09,16,16,27,14.20
2011,09,16,16,28,14.20
2011,09,16,16,29,14.30
2011,09,16,16,30,14.30
2011,09,16,16,31,14.30
2011,09,16,16,32,14.30
2011,09,16,16,33,14.30
2011,09,16,16,34,14.30
2011,09,16,16,35,14.40
2011,09,16,16,36,14.40
2011,09,16,16,37,14.40
2011,09,16,16,38,14.40
2011,09,16,16,39,14.40
2011,09,16,16,40,14.40
2011,09,16,16,41,14.50
2011,09,16,16,42,14.50
2011,09,16,16,43,14.50
2011,09,16,16,44,14.50
2011,09,16,16,45,14.40
2011,09,16,16,46,14.40
2011,09,16,16,47,14.40
2011,09,16,16,48,14.40
2011,09,16,16,49,14.40
2011,09,16,16,50,14.30
2011,09,16,16,51,14.30
2011,09,16,16,52,14.30
2011,09,16,16,53,14.30
2011,09,16,16,54,14.30
2011,09,16,16,55,14.30
2011,09,16,16,56,14.30
2011,09,16,16,57,14.30
2011,09,16,16,58,14.40
2011,09,16,16,59,14.40
2011,09,16,17,00,14.40
2011,09,16,17,01,14.40
2011,09,16,17,02,14.50
2011,09,16,17,03,14.50
2011,09,16,17,04,14.60
2011,09,16,17,05,14.60
2011,09,16,17,06,14.60
2011,09,16,17,07,14.60
2011,09,16,17,08,14.60
2011,09,16,17,09,14.60
2011,09,16,17,10,14.60
2011,09,16,17,11,14.60
2011,09,16,17,12,14.60
2011,09,16,17,13,14.60
2011,09,16,17,14,14.60
2011,09,16,17,15,14.60
2011,09,16,17,16,14.60
2011,09,16,17,17,14.60
2011,09,16,17,18,14.60
2011,09,16,17,19,14.60
2011,09,16,17,20,14.60
2011,09,16,17,21,14.60
2011,09,16,17,22,14.60
2011,09,16,17,23,14.60
2011,09,16,17,24,14.60
2011,09,16,17,25,14.60
2011,09,16,17,26,14.60
2011,09,16,17,27,14.60
2011,09,16,17,28,14.60
2011,09,16,17,29,14.60
2011,09,16,17,30,14.60
2011,09,16,17,31,14.60
2011,09,16,17,32,14.60
2011,09,16,17,33,14.60
2011,09,16,17,34,14.60
2011,09,16,17,35,14.60
2011,09,16,17,36,14.60
2011,09,16,17,37,14.60
2011,09,16,17,38,14.60
2011,09,16,17,39,14.70
2011,09,16,17,40,14.60
2011,09,16,17,41,14.60
2011,09,16,17,42,14.60
2011,09,16,17,43,14.60